FENGYUN 3A

Last updated on Tue Sep 22 2026 00:02:53 GMT+0000 (Coordinated Universal Time)

1 32958U 08026A 26264.11577370 .00000033 00000+0 36318-4 0 9994 2 32958 98.6942 203.1746 0008074 205.4376 154.6404 14.19587763949014
UTC large
Height (km)
Speed (km/s)
/
Latitude / Longitude
Inclination (degrees)
Orbital Period (minutes)
Azimuth
Elevation
Range (km)
Doppler Factor

Next 0 passes for location: London (51.5072 / 0.1276)

No passes found over London.
FENGYUN 3A